Torna al catalogo

STARLINK-4593

AttivoComunicazioniVLEO
NORAD 53633·PAYLOAD·🇺🇸 United States

Lanciato Aug 28, 2022 da Cape Canaveral Space Force Station

Loading…

Prossimi Passaggi (prossime 24 ore)

TLE

AggiornatoSource: CelesTrak SupGP

Epoca: Sep 14, 2026, 21:31 UTC

1 53633C 22104AX  26257.89701389  .00013166  00000+0  38917-3 0  2570
2 53633  53.1591  87.7245 0001279  81.6864 156.5269 15.34370917    16

Traccia STARLINK-4593 in tempo reale con AllMySat

Download on the App Store